#timestamp,LO_Frequency,Hit,StdDev 
1704211215.9,286047001.1,N
1704211235.7,286047000.1,N
1704211255.6,286047000.5,N
1704211275.4,286046999.6,N
1704211295.2,286046996.7,N
1704211315.1,286046997.4,N
1704211316.0,286046997.4,N
1704211335.8,286046996.8,N
1704211355.6,286046998.6,N
1704211375.5,286046999.7,N
1704211395.3,286047002.0,N
1704211415.2,286047001.9,N
1704211435.9,286047004.3,N
1704211455.7,286047002.3,N
1704211475.6,286047004.1,N
1704211495.4,286047003.5,N
1704211515.2,286047003.9,N
1704211535.1,286047001.9,N
1704211536.0,286047001.9,N
1704211555.8,286047001.7,N
1704211575.7,286047001.8,N
1704211595.5,286047001.4,N
1704211615.3,286047001.8,N
1704211635.2,286047004.1,N
1704211655.0,286047001.3,N
1704211655.9,286047001.3,N
1704211675.7,286047001.5,N
1704211695.6,286047001.8,N
1704211715.4,286046999.9,N
1704211735.3,286046998.3,N
1704211755.1,286046998.2,N
1704211756.0,286046998.2,N
1704211775.8,286047000.7,N
1704211795.7,286047001.2,N
1704211815.5,286046998.5,N
1704211835.3,286046997.8,N
1704211855.2,286046998.0,N
1704211875.0,286046996.6,N
1704211875.9,286046996.6,N
1704211895.8,286046998.0,N
1704211915.6,286046995.4,N
1704211935.4,286046995.8,N
1704211955.3,286046996.0,N
1704211975.1,286046996.4,N
1704211995.9,286046994.3,N
1704212015.7,286046991.9,Y
1704212065.6,286046993.1,E
1704212075.5,286046994.3,N
1704212095.3,286046999.2,P
1704212115.2,286046999.2,N
1704212135.9,286046996.7,N
1704212155.7,286046997.3,N
1704212175.6,286046999.4,N
1704212195.4,286046998.8,N
1704212215.2,286047001.0,N
1704212235.1,286046999.3,N
1704212236.0,286046999.3,N
1704212255.8,286046997.1,N
1704212275.7,286046997.8,N
1704212295.5,286046997.7,N
1704212315.3,286046997.4,N
1704212335.2,286046997.0,N
1704212355.0,286046998.6,N
1704212355.9,286046998.6,N
1704212375.8,286046998.9,N
1704212395.6,286046998.1,N
1704212415.4,286046999.1,N
1704212435.3,286046997.0,N
1704212455.1,286046999.2,N
1704212456.0,286046999.2,N
1704212475.8,286046999.5,N
1704212495.7,286046997.7,N
1704212515.5,286046996.5,N
1704212535.4,286046996.7,N
1704212555.2,286046997.3,N
1704212575.0,286046997.7,N
1704212575.9,286046997.7,N
1704212595.8,286046995.1,Y
1704212615.6,286046996.8,P
1704212635.4,286046995.3,P
1704212655.3,286046995.6,P
1704212675.1,286046995.0,Y
1704212695.9,286047000.3,P
1704212715.7,286047002.5,N
1704212735.5,286047003.6,N
1704212755.4,286047005.9,N
1704212775.2,286047003.0,N
1704212795.0,286047003.0,N
1704212795.9,286047003.0,N
1704212815.8,286047005.1,N
1704212835.6,286047003.7,N
1704212855.5,286047004.0,N
1704212875.3,286047001.5,N
1704212895.1,286047001.5,N
1704212915.9,286047002.8,N
1704212935.7,286047000.3,N
1704212955.5,286047001.2,N
1704212975.4,286046996.9,N
1704212995.2,286046995.1,N
1704213015.1,286046995.8,N
1704213016.0,286046995.8,N
1704213035.8,286046995.8,N
1704213055.6,286046995.4,N
1704213075.5,286046995.7,N
1704213095.3,286046995.4,N
1704213115.1,286046997.4,N
1704213135.9,286046997.5,N
1704213155.7,286046996.0,N
1704213175.6,286046994.7,N
1704213195.4,286046992.1,N
1704213215.2,286046992.6,N
1704213235.1,286046992.4,N
1704213236.0,286046992.4,N
1704213255.8,286046991.8,N
1704213275.6,286046993.8,N
1704213295.5,286046994.3,N
1704213315.3,286046994.8,N
1704213335.2,286046992.6,N
1704213355.9,286046992.7,N
1704213375.7,286046992.3,N
1704213395.6,286046993.6,N
1704213415.4,286046993.4,N
1704213435.2,286046994.2,N
1704213455.1,286046993.2,N
1704213456.0,286046993.2,N
1704213475.8,286046988.6,Y
1704213495.7,286046996.0,P
1704213515.5,286046996.2,P
1704213535.3,286046993.7,P
1704213555.2,286046993.4,Y
1704213575.0,286046998.3,P
1704213575.9,286046998.3,N
1704213595.8,286047001.1,N
1704213615.6,286046999.4,N
1704213635.4,286046998.4,N
1704213655.3,286047001.1,N
1704213675.1,286047001.1,N
1704213695.8,286047000.9,N
1704213715.7,286047000.9,N
1704213735.5,286047001.7,N
1704213755.4,286047003.9,N
1704213775.2,286047003.9,N
1704213795.0,286047004.1,N
1704213795.9,286047004.1,N
1704213815.8,286047004.2,N
1704213835.6,286047005.4,N
1704213855.5,286047003.6,N
1704213875.3,286047003.0,N
1704213895.1,286047005.5,N
1704213915.9,286047005.2,N
1704213935.7,286047002.9,N
1704213955.5,286047005.7,N
1704213975.4,286047003.1,N
1704213995.2,286047003.9,N
1704214015.0,286047001.9,N
1704214016.0,286047001.9,N
1704214035.8,286047002.4,N
1704214055.6,286046999.8,N
1704214075.5,286047000.6,N
1704214095.3,286046999.9,N
1704214115.1,286047001.0,N
1704214135.9,286047000.6,N
1704214155.7,286047000.5,N
1704214175.6,286047000.4,N
1704214195.4,286047000.1,N
1704214215.2,286047000.2,N
1704214235.1,286047000.0,N
1704214236.0,286047000.0,N
1704214255.8,286047000.2,N
1704214275.6,286047000.4,N
1704214295.5,286047000.2,N
1704214315.3,286047000.1,N
1704214335.2,286047000.3,N
1704214355.9,286046998.7,N
1704214375.7,286046999.1,N
1704214395.6,286046997.6,N
1704214415.4,286046995.8,N
1704214435.2,286046996.2,N
1704214455.1,286046996.3,N
1704214456.0,286046996.3,N
1704214475.8,286046995.6,N
1704214495.7,286046995.9,N
1704214515.5,286046993.3,Y
1704214535.3,286046993.6,P
1704214555.2,286046994.0,N
1704214575.0,286046994.5,N
1704214575.9,286046994.5,N
1704214595.7,286046994.3,N
1704214615.6,286046994.8,N
1704214635.4,286046991.8,Y
1704214655.3,286046996.7,P
1704214675.1,286046997.4,P
1704214695.8,286046995.1,P
1704214715.7,286046995.8,Y
1704214735.5,286046998.9,P
1704214755.4,286046999.2,N
1704214775.2,286046998.7,N
1704214795.0,286046999.6,N
1704214795.9,286046999.6,N
